�N����,�ō��C����30���i�^�ē��j,�ō��C����35���i�ҏ����j
2015/05/01,4,
2015/05/02,38,
2015/05/03,5,
2015/05/04,,
2015/05/05,,
2015/05/06,,
2015/05/07,,
2015/05/08,,
2015/05/09,13,
2015/05/10,9,
2015/05/11,2,
2015/05/12,3,
2015/05/13,5,
2015/05/14,48,
2015/05/15,41,
2015/05/16,18,
2015/05/17,16,
2015/05/18,18,
2015/05/19,30,
2015/05/20,43,
2015/05/21,,
2015/05/22,,
2015/05/23,12,
2015/05/24,16,
2015/05/25,21,
2015/05/26,155,
2015/05/27,252,
2015/05/28,37,
2015/05/29,152,
2015/05/30,194,
2015/05/31,84,
2015/06/01,83,
2015/06/02,99,
2015/06/03,28,
2015/06/04,23,
2015/06/05,20,
2015/06/06,14,
2015/06/07,14,
2015/06/08,27,
2015/06/09,34,
2015/06/10,61,
2015/06/11,52,
2015/06/12,158,
2015/06/13,168,
2015/06/14,57,
2015/06/15,119,
2015/06/16,37,
2015/06/17,45,
2015/06/18,41,
2015/06/19,28,
2015/06/20,24,
2015/06/21,25,
2015/06/22,28,
2015/06/23,40,
2015/06/24,78,
2015/06/25,130,
2015/06/26,40,
2015/06/27,38,
2015/06/28,65,
2015/06/29,53,
2015/06/30,38,
2015/07/01,37,
2015/07/02,60,
2015/07/03,48,
2015/07/04,36,
2015/07/05,36,
2015/07/06,36,
2015/07/07,51,
2015/07/08,95,
2015/07/09,178,17
2015/07/10,262,12
2015/07/11,421,3
2015/07/12,562,18
2015/07/13,513,122
2015/07/14,600,99
2015/07/15,602,45
2015/07/16,140,1
2015/07/17,185,3
2015/07/18,185,
2015/07/19,352,19
2015/07/20,416,30
2015/07/21,442,47
2015/07/22,350,53
2015/07/23,192,
2015/07/24,504,16
2015/07/25,545,58
2015/07/26,596,129
2015/07/27,603,62
2015/07/28,479,17
2015/07/29,612,37
2015/07/30,634,69
2015/07/31,718,157
2015/08/01,677,223
2015/08/02,667,179
2015/08/03,694,132
2015/08/04,756,174
2015/08/05,822,215
2015/08/06,737,193
2015/08/07,690,199
2015/08/08,594,145
2015/08/09,622,94
2015/08/10,670,103
2015/08/11,593,70
2015/08/12,353,11
2015/08/13,253,2
2015/08/14,358,7
2015/08/15,477,10
2015/08/16,432,2
2015/08/17,145,
2015/08/18,383,
2015/08/19,214,
2015/08/20,176,1
2015/08/21,270,1
2015/08/22,413,2
2015/08/23,329,3
2015/08/24,174,
2015/08/25,78,
2015/08/26,141,
2015/08/27,210,
2015/08/28,121,
2015/08/29,62,
2015/08/30,32,
2015/08/31,37,
2015/09/01,61,
2015/09/02,206,
2015/09/03,60,
2015/09/04,149,
2015/09/05,67,
2015/09/06,63,
2015/09/07,20,
2015/09/08,50,
2015/09/09,50,
2015/09/10,43,
2015/09/11,53,
2015/09/12,50,
2015/09/13,23,
2015/09/14,29,
2015/09/15,21,
2015/09/16,18,
2015/09/17,19,
2015/09/18,20,
2015/09/19,26,
2015/09/20,22,
2015/09/21,13,
2015/09/22,40,
2015/09/23,52,
2015/09/24,46,
2015/09/25,49,
2015/09/26,42,
2015/09/27,42,
2015/09/28,63,
2015/09/29,46,
2015/09/30,26,
2015/10/01,50,
2015/10/02,15,
2015/10/03,23,
2015/10/04,19,
2015/10/05,16,
2015/10/06,12,
2015/10/07,4,
2015/10/08,3,
2015/10/09,3,
2015/10/10,2,
2015/10/11,,
2015/10/12,,
2015/10/13,,
2015/10/14,,
2015/10/15,,
2015/10/16,,
2015/10/17,,
2015/10/18,,
2015/10/19,4,
2015/10/20,1,
2015/10/21,,
2015/10/22,,
2015/10/23,,
2015/10/24,1,
2015/10/25,,
2015/10/26,,
2015/10/27,,
2015/10/28,,
2015/10/29,,
2015/10/30,,
2015/10/31,,
